Fort Polk, LA

10:05 AM CDT on April 26, 2017 (GMT -0500)
Fort Polk

Weather History for KAQV - January, 2014

Change the Weather History Date:

Thursday, January 9, 2014

  Actual Average (KPOE) Record (KPOE)
Temperature  
Mean Temperature 53 °F -  
Max Temperature 64 °F 58 °F 75 °F (2006)
Min Temperature 42 °F 38 °F 30 °F (1998)
Degree Days  
Heating Degree Days 12    
Growing Degree Days 3 (Base 50)    
Moisture  
Dew Point 47 °F    
Average Humidity 79    
Maximum Humidity 90    
Minimum Humidity 63    
Precipitation  
Precipitation 0.00 in - - ()
Sea Level Pressure  
Sea Level Pressure 30.18 in    
Wind  
Wind Speed 4 mph (SE)    
Max Wind Speed 7 mph    
Max Gust Speed -    
Visibility 10 miles    
Events Rain    
Averages and records for this station are not official NWS values.
T = Trace of Precipitation, MM = Missing Value Source: NWS Daily Summary

Daily Weather History Graph

Daily Weather History Graph

Search for Another Location

Airport or City:

Trip Planner

Search our weather history database for the weather conditions in past years. The results will help you decide how hot, cold, wet, or windy it might be!

Date:

Astronomy

Jan. 09, 2014 Rise Set
Actual Time 7:13 AM CST 5:27 PM CST
Civil Twilight 6:46 AM CST 5:54 PM CST
Nautical Twilight 6:16 AM CST 6:24 PM CST
Astronomical Twilight 5:47 AM CST 6:53 PM CST
Moon 12:47 PM CST (1/9) 1:30 AM CST (1/9)
Length of Visible Light 11h 07m
Length of Day
10h 14m
Waxing Gibbous, 66% of the Moon is Illuminated
Jan 9
Waxing Gibbous
Jan 15
Full
Jan 23
Last Quarter
Jan 30
New
Feb 6
First Quarter

Hourly Weather History & Observations

Time (CST) Temp. Windchill Dew Point Humidity Pressure Visibility Wind Dir Wind Speed Gust Speed Precip Events Conditions
12:56 AM 43.0 °F 39.5 °F 34.0 °F 71% 30.26 in 10.0 mi SE 5.8 mph - N/A   Overcast
1:56 AM 42.1 °F - 35.1 °F 76% 30.25 in 10.0 mi Calm Calm - N/A   Overcast
2:56 AM 43.0 °F 40.3 °F 37.9 °F 82% 30.24 in 10.0 mi SSE 4.6 mph - N/A   Overcast
3:56 AM 43.0 °F 40.3 °F 39.0 °F 86% 30.23 in 10.0 mi Variable 4.6 mph - N/A   Overcast
4:56 AM 43.0 °F 39.5 °F 39.0 °F 86% 30.21 in 10.0 mi Variable 5.8 mph - N/A   Overcast
5:56 AM 43.0 °F 41.3 °F 39.0 °F 86% 30.22 in 10.0 mi SE 3.5 mph - N/A   Overcast
6:56 AM 43.0 °F - 39.0 °F 86% 30.22 in 10.0 mi Calm Calm - 0.00 in Rain Light Rain
7:56 AM 43.0 °F 41.3 °F 39.0 °F 86% 30.22 in 10.0 mi SE 3.5 mph - 0.00 in   Partly Cloudy
8:56 AM 45.0 °F 42.6 °F 39.0 °F 80% 30.23 in 10.0 mi SE 4.6 mph - N/A   Overcast
9:56 AM 52.0 °F - 44.1 °F 74% 30.23 in 10.0 mi Variable 3.5 mph - 0.00 in   Mostly Cloudy
10:56 AM 59.0 °F - 48.0 °F 67% 30.22 in 10.0 mi Variable 5.8 mph - N/A   Mostly Cloudy
11:56 AM 63.0 °F - 51.1 °F 65% 30.19 in 10.0 mi Variable 3.5 mph - N/A   Overcast
12:56 PM 64.0 °F - 51.1 °F 63% 30.15 in 10.0 mi Variable 4.6 mph - N/A   Overcast
1:56 PM 64.9 °F - 52.0 °F 63% 30.14 in 10.0 mi Variable 3.5 mph - N/A   Overcast
2:56 PM 63.0 °F - 52.0 °F 67% 30.13 in 10.0 mi Calm Calm - 0.00 in   Overcast
3:56 PM 64.0 °F - 53.1 °F 67% 30.13 in 10.0 mi Variable 6.9 mph - N/A   Mostly Cloudy
5:56 PM 57.0 °F - 53.1 °F 87% 30.13 in 10.0 mi Calm Calm - N/A   Mostly Cloudy
6:56 PM 55.9 °F - 53.1 °F 90% 30.13 in 10.0 mi SSE 3.5 mph - N/A   Partly Cloudy
7:56 PM 57.9 °F - 53.1 °F 84% 30.15 in 10.0 mi Calm Calm - N/A   Overcast
8:10 PM 59.0 °F - 53.6 °F 82% 30.14 in 10.0 mi SSE 3.5 mph - N/A   Overcast
8:56 PM 59.0 °F - 54.0 °F 83% 30.16 in 10.0 mi Calm Calm - N/A   Overcast
9:56 PM 57.9 °F - 53.1 °F 84% 30.15 in 10.0 mi Variable 3.5 mph - N/A   Overcast
10:46 PM 57.2 °F - 53.6 °F 88% 30.13 in 10.0 mi Variable 4.6 mph - N/A   Mostly Cloudy
10:56 PM 57.0 °F - 52.0 °F 83% 30.13 in 10.0 mi SSE 4.6 mph - N/A   Mostly Cloudy
11:56 PM 55.0 °F - 52.0 °F 89% 30.12 in 10.0 mi Variable 4.6 mph - N/A   Partly Cloudy